Wind_Speed
22 23 22 22 21 23 22 20 15 14 12 10 4 2 4 9 12 33 20 17 19 22 24 24 22 27 4 2 4 4 3 2 4 6 5 7 8 6 5 7 6 7 6 6 15
24 24 23 22 21 22 23 17 14 13 13 12 8 2 2 6 3 24 19 21 23 22 24 19 9 18 5 3 4 3 2 2 2 2 4 3 6 6 6 7 7 9 8 18 25
24 24 23 22 21 23 21 14 13 12 11 12 12 4 3 8 4 7 23 24 25 20 17 16 13 6 4 2 3 4 2 6 2 6 7 8 2 4 6 3 1 9 17 11 10
25 25 23 22 21 23 20 13 12 11 10 8 9 8 6 6 3 13 23 26 21 17 17 10 7 5 5 5 5 4 4 6 5 8 7 6 8 7 5 6 8 10 10 10 4
27 26 25 23 21 24 18 11 10 9 9 11 12 13 3 6 3 15 22 26 19 19 20 7 7 5 4 5 8 2 5 8 10 11 10 8 7 7 9 10 10 10 11 10 9
30 30 27 23 22 24 15 9 9 5 6 9 12 11 5 7 13 16 20 27 18 15 15 13 5 4 2 3 3 5 6 8 8 10 8 11 10 3 4 7 10 13 13 10 10
29 32 29 24 22 22 13 10 6 8 6 5 8 7 9 3 12 18 18 23 15 8 4 8 7 5 5 6 5 7 6 8 8 4 4 5 5 6 9 9 6 8 8 8 8
28 32 30 24 22 21 9 13 8 6 8 8 8 5 3 4 13 18 23 22 13 5 4 4 4 1 1 3 7 3 2 5 7 8 5 3 12 8 9 7 9 9 8 8 8
29 32 31 24 20 23 11 6 12 5 5 11 7 1 3 5 19 18 30 19 13 1 3 3 2 1 5 2 5 6 3 9 9 9 6 5 18 8 12 10 14 13 10 11 14
29 33 32 23 22 25 11 2 7 22 5 3 13 5 6 7 19 21 35 14 5 4 2 1 1 3 5 6 2 6 6 7 7 6 16 15 19 10 9 7 7 10 12 12 13
27 31 32 21 21 24 16 3 6 6 15 5 1 3 4 19 5 24 33 13 8 4 5 1 6 4 5 4 6 7 4 7 13 16 10 6 15 17 11 11 14 14 15 16 17
25 28 30 21 14 20 21 8 3 1 3 5 3 4 2 11 5 18 30 7 6 5 9 6 4 6 7 8 7 6 9 12 10 3 12 11 10 8 9 10 12 13 15 16 18
24 26 29 21 9 11 20 9 2 1 3 1 1 2 6 4 4 9 10 6 5 8 6 2 3 5 7 7 8 6 7 6 9 12 11 5 1 4 9 7 14 15 14 14 17
24 25 28 18 3 14 6 10 1 1 4 8 6 4 5 2 2 5 11 2 6 6 7 2 4 5 7 3 3 8 5 16 18 4 3 3 4 5 12 9 15 15 16 18 17
20 23 26 14 6 4 10 4 2 1 3 4 4 6 5 6 4 9 16 6 4 5 1 5 5 7 4 5 5 9 17 18 14 5 1 1 3 4 9 15 21 19 19 18 17
19 21 24 9 3 10 8 2 1 5 3 4 4 6 5 5 3 6 7 8 3 5 3 5 6 1 5 7 4 8 14 9 3 3 3 4 1 3 9 16 18 20 20 19 18
20 20 17 7 5 10 1 2 4 6 4 5 4 5 3 5 6 7 3 9 4 7 7 7 6 2 4 6 5 12 7 5 6 5 2 4 3 0 9 11 11 17 17 16 16
17 16 10 7 11 5 2 5 7 2 2 2 3 6 2 6 4 7 4 5 8 5 2 4 8 7 8 2 4 5 3 2 4 2 3 5 6 2 6 7 10 13 14 15 17
18 9 6 6 13 3 4 6 6 5 3 5 5 3 2 3 3 6 3 2 1 1 4 4 5 6 4 5 3 7 4 5 3 3 2 1 3 3 10 10 13 15 16 16 15
13 7 3 7 8 1 5 4 4 2 0 0 1 3 3 5 3 5 2 3 2 2 3 1 6 4 7 6 5 3 5 5 3 5 5 2 2 6 19 18 15 16 15 16 15
5 4 1 9 4 4 3 3 3 3 2 1 2 1 2 1 3 1 4 3 1 2 2 0 2 7 3 2 2 4 4 4 0 2 3 4 3 5 10 10 12 12 12 12 12
3 2 6 7 4 1 2 1 2 3 1 1 1 1 1 2 1 1 3 6 3 1 1 2 2 5 6 11 7 3 3 3 3 6 3 3 3 1 5 5 8 10 11 11 9
1 2 3 3 2 1 1 2 1 2 3 3 3 2 1 2 2 3 3 4 6 2 4 2 2 5 9 6 6 3 3 3 3 2 2 1 4 3 4 5 7 9 9 10 11
1 2 3 4 1 3 2 2 2 1 1 2 1 2 1 2 4 2 2 3 6 3 5 1 2 7 5 7 1 5 9 6 3 2 2 3 5 6 8 8 8 8 8 8 9
2 3 3 1 2 2 3 1 2 3 1 3 2 5 5 1 3 3 2 3 3 4 3 4 3 4 8 17 14 16 14 6 5 6 2 4 3 6 6 2 5 4 6 7 8
4 3 1 2 1 4 1 4 4 1 6 4 4 3 7 5 7 6 4 3 5 1 2 3 2 3 5 5 1 8 9 7 5 5 6 6 5 3 2 3 3 5 4 6 7
1 2 3 3 3 4 5 5 5 6 2 4 6 2 4 8 5 4 5 4 5 6 3 2 1 4 5 7 7 4 5 4 2 4 3 4 3 3 3 3 1 3 4 4 4
Wind_Direction
20 17 14 12 12 8 4 3 9 16 16 20 47 142 91 57 37 36 37 357 350 344 341 342 351 348 335 351 354 20 54 259 324 10 309 22 14 15 305 10 327 360 3 107 30
18 16 14 11 10 7 5 12 18 18 18 18 34 188 258 343 19 46 6 356 347 343 342 336 326 338 3 22 10 73 130 211 358 353 332 3 15 337 8 358 323 340 345 349 348
17 14 11 9 8 6 7 17 18 21 32 39 37 55 276 337 62 360 356 354 351 351 347 342 341 347 20 24 32 346 211 322 1 7 16 338 28 337 0 336 100 306 306 323 5
15 14 11 8 9 6 5 16 19 25 38 42 26 23 19 2 63 356 353 354 355 8 6 9 354 25 16 10 1 350 290 328 324 344 346 320 301 307 229 243 260 267 279 300 355
15 15 14 9 7 3 3 14 25 41 54 48 28 353 53 46 27 347 354 355 1 9 7 2 28 19 13 342 341 283 329 326 327 316 299 279 264 256 274 268 274 274 275 276 281
17 15 13 10 8 4 11 17 27 53 54 25 11 28 55 70 359 344 351 353 2 5 6 31 2 324 318 298 343 305 333 298 294 278 270 278 284 204 249 277 282 267 269 265 258
15 12 12 10 6 8 17 13 5 15 356 337 14 51 68 152 359 11 356 357 354 13 18 11 358 43 336 333 319 282 308 314 292 319 247 353 295 254 279 291 301 307 275 281 273
13 8 7 7 6 6 19 31 26 26 45 28 1 20 81 40 10 3 347 352 4 334 19 13 13 313 212 306 334 284 37 355 307 344 310 344 289 285 269 285 289 295 293 283 266
10 8 6 5 8 3 355 16 37 3 34 32 23 9 16 343 350 349 349 334 328 335 323 323 356 50 359 0 357 20 316 314 318 328 301 32 298 297 292 267 275 273 281 285 268
7 7 5 8 12 11 356 119 58 33 17 350 26 49 27 320 325 341 346 357 280 290 284 252 37 46 18 47 313 289 300 275 267 291 305 298 287 302 305 304 358 10 345 335 321
0 3 3 6 12 13 9 61 16 359 39 93 86 70 347 333 26 358 350 336 354 67 17 106 59 32 329 318 282 280 277 281 291 295 308 283 297 310 340 45 9 356 343 333 318
356 359 2 0 15 10 33 68 67 299 66 63 32 82 340 342 347 349 5 43 15 17 6 18 63 322 328 347 338 3 306 299 294 320 332 313 310 85 37 41 15 345 338 329 318
352 357 360 353 27 360 48 53 74 13 120 2 95 38 291 7 15 337 15 344 20 10 354 146 281 2 16 338 344 315 261 272 275 314 287 352 292 34 354 11 355 347 337 330 318
350 354 356 1 29 355 49 358 102 18 80 328 352 356 333 61 68 21 9 30 13 353 337 293 319 10 343 306 2 307 247 298 292 318 257 74 289 40 336 333 353 346 341 335 327
343 348 351 1 336 24 323 353 75 332 32 345 342 322 341 78 301 347 20 25 72 301 26 271 313 342 342 245 314 257 302 293 289 202 260 257 272 304 350 342 343 348 341 339 334
332 335 339 350 329 342 336 97 28 41 287 347 19 357 10 28 20 342 12 10 98 2 326 266 282 169 220 283 292 308 313 327 60 101 53 278 277 353 358 331 337 341 341 340 338
328 326 332 329 338 335 77 40 34 94 346 336 334 347 359 341 358 19 74 37 59 23 0 328 320 317 350 334 327 352 356 353 0 7 230 347 48 198 344 345 339 334 336 338 345
327 329 338 320 332 340 95 58 69 268 286 355 323 320 72 14 359 5 22 25 30 56 31 31 337 9 338 7 275 324 77 106 295 301 303 335 345 172 27 329 335 339 342 351 358
339 341 312 321 333 330 71 55 192 214 256 342 324 44 357 4 45 30 48 87 70 49 111 23 276 321 272 319 19 316 22 208 256 224 296 85 341 234 356 351 359 355 353 359 3
342 339 294 321 335 4 66 157 174 122 97 274 74 47 329 337 37 46 352 288 94 164 143 248 297 251 299 357 355 72 326 20 8 3 331 327 74 320 340 343 354 0 354 354 2
355 14 270 339 360 43 108 184 121 97 86 100 211 300 7 294 128 312 250 282 86 336 133 125 118 290 324 38 265 347 10 359 223 299 327 317 309 1 329 336 347 353 352 355 1
16 349 1 344 43 62 108 120 348 149 133 170 261 236 184 130 117 233 234 204 170 122 132 292 175 279 260 293 289 27 115 68 84 304 283 266 291 352 304 325 355 354 349 357 6
16 268 3 351 91 8 273 86 315 148 198 188 242 203 137 185 27 204 263 162 154 118 155 256 325 321 347 355 9 28 352 45 247 216 250 47 306 125 355 352 2 356 357 7 10
62 345 330 49 144 115 151 236 215 59 193 163 208 81 248 273 194 250 292 189 167 138 130 117 236 176 207 221 125 314 300 309 298 262 284 240 277 325 343 2 355 353 2 18 17
120 249 162 316 350 96 85 205 197 242 230 151 282 208 183 202 346 225 233 346 98 126 76 109 221 192 254 263 266 263 271 270 175 237 241 253 277 309 325 343 311 302 354 22 25
157 151 43 165 159 101 172 228 209 153 152 230 193 222 186 185 191 211 132 201 216 133 99 356 268 347 292 288 122 281 263 258 236 232 253 269 265 269 67 115 356 342 15 14 20
311 354 94 187 168 130 206 195 196 146 224 195 202 194 222 236 220 211 193 200 186 154 168 151 63 13 274 327 318 359 239 202 218 224 191 221 181 292 312 312 306 298 358 9 16
Height
844 841 838 835 832 830 827 823 821 819 818 816 816 816 816 816 815 810 810 818 815 810 805 800 795 791 788 790 789 789 808 808 796 797 794 790 792 788 786 786 782 780 779 781 780
846 842 839 836 833 830 827 824 821 820 818 817 816 816 817 816 816 815 821 818 814 809 805 801 798 794 796 794 794 800 811 798 796 796 798 794 794 793 792 793 786 782 778 777 779
847 844 840 837 834 830 827 825 822 820 818 817 817 816 817 816 818 823 820 817 813 809 806 803 799 797 797 794 799 803 808 801 796 795 796 795 793 792 794 793 790 792 782 778 781
848 845 842 838 835 831 828 825 823 822 820 819 819 818 818 817 830 825 822 818 813 809 806 803 802 803 806 807 804 808 801 801 799 799 798 799 794 794 793 793 788 786 783 780 781
850 846 842 839 836 832 828 826 824 822 821 820 819 818 818 823 828 825 822 818 814 810 808 807 808 809 815 812 808 806 806 802 800 797 795 793 795 793 789 787 784 782 780 779 779
852 848 844 840 836 832 828 827 825 823 822 821 820 819 819 832 828 825 822 818 814 812 811 810 812 810 810 810 810 808 808 805 800 796 795 791 789 789 786 783 783 780 778 777 776
853 849 844 840 837 833 830 828 826 825 822 822 822 822 824 832 828 826 821 818 816 814 813 812 812 813 814 814 808 806 811 806 797 794 792 787 791 788 783 782 780 779 777 775 774
854 850 845 841 838 834 831 828 827 826 825 824 823 823 830 829 828 824 820 814 814 814 813 812 811 812 812 811 810 809 809 821 799 798 792 794 787 786 780 779 778 775 773 771 770
855 851 846 842 838 834 832 830 828 826 826 825 824 824 833 830 827 826 822 817 813 813 813 813 813 814 814 820 837 828 840 827 814 800 800 800 798 786 782 775 772 770 770 769 765
856 852 847 843 840 834 830 830 828 827 825 825 827 832 835 837 830 827 822 816 814 812 814 815 817 824 829 837 854 837 834 825 821 803 797 799 790 784 778 776 780 783 780 777 770
857 854 849 845 841 836 828 828 833 834 832 841 842 840 841 838 832 831 823 817 814 815 825 815 831 838 827 822 821 824 833 826 811 797 795 794 789 781 779 784 786 785 783 778 771
857 854 850 846 843 839 834 836 847 848 845 840 839 842 841 839 837 832 827 828 826 830 827 836 839 824 819 819 821 827 831 820 808 794 794 791 793 785 783 790 793 793 788 782 771
858 854 850 846 844 841 839 844 845 846 847 842 840 841 842 840 842 840 834 833 831 836 837 835 825 819 821 825 828 826 828 820 811 799 792 797 799 796 792 791 791 792 791 784 777
859 856 851 846 846 845 845 847 846 846 864 851 844 844 840 838 843 841 838 837 837 843 837 830 821 823 827 828 826 835 809 804 802 810 816 799 812 807 799 796 797 796 792 783 775
860 856 853 847 849 848 850 846 845 847 865 848 847 843 842 845 849 844 842 838 847 845 840 833 826 827 831 835 822 823 805 799 797 817 803 800 800 824 802 798 797 795 790 784 776
859 856 853 851 849 848 847 846 848 862 886 853 848 851 850 848 848 848 851 844 844 847 839 836 824 821 835 820 815 812 804 800 797 823 831 813 804 825 817 815 804 797 792 785 777
858 856 852 851 850 848 846 847 862 879 854 857 860 855 855 859 855 854 870 873 884 884 889 855 834 821 820 825 820 819 822 858 840 843 829 801 805 823 821 819 814 807 799 790 781
857 854 852 852 851 847 845 853 876 861 869 859 856 857 858 864 863 862 865 880 876 882 902 887 865 836 829 828 835 836 836 848 859 864 811 800 810 816 821 819 816 811 803 794 785
854 852 852 852 850 848 850 879 881 884 867 870 863 858 862 865 871 872 888 883 879 888 901 909 872 845 833 828 827 829 852 833 836 846 819 807 815 818 812 815 814 811 803 797 792
853 852 852 850 847 847 860 867 864 863 865 867 870 864 865 876 877 893 902 877 875 882 884 881 888 852 839 828 828 830 831 847 852 858 842 818 833 824 819 816 817 814 810 803 798
853 855 850 849 849 855 876 869 864 865 867 871 874 866 870 886 906 911 902 877 873 875 881 877 890 866 850 845 848 846 860 849 848 838 831 819 835 829 831 827 825 822 817 811 806
856 860 852 850 859 866 873 866 865 867 867 869 870 867 868 875 893 894 891 880 873 876 891 882 890 899 861 841 837 837 848 854 866 864 844 834 826 833 836 833 829 826 821 816 812
858 856 850 850 872 873 867 864 867 867 867 869 869 867 868 874 889 878 870 871 872 876 892 890 905 904 879 859 849 862 848 857 857 859 847 850 830 828 831 833 832 829 824 820 815
859 863 854 855 863 858 866 864 866 866 865 865 867 868 870 871 871 878 871 869 871 874 872 878 890 905 901 882 879 886 862 856 849 864 868 844 839 828 831 833 833 834 828 826 822
857 864 859 864 862 865 869 869 865 868 868 868 870 870 879 893 889 879 870 872 872 871 879 890 905 903 876 866 863 858 859 867 874 850 851 848 846 831 830 838 840 842 831 828 826
854 858 860 868 862 865 868 871 863 867 871 870 875 864 872 884 877 885 884 881 878 877 898 897 902 887 886 852 852 851 842 847 854 843 842 839 833 828 831 834 838 841 841 832 830
856 856 854 855 864 865 860 857 855 860 864 863 866 869 870 865 865 866 870 871 876 885 893 886 896 907 901 863 883 861 859 856 842 844 833 841 830 828 828 830 834 841 838 838 834